Tegucigalpa, Honduras

11:01 AM CST on August 23, 2017 (GMT -0600)
Toncontin International

Weather History for MHTG - January, 2014

Change the Weather History Date:

Thursday, January 23, 2014

  Actual Average Record
Temperature  
Mean Temperature 65 °F -  
Max Temperature 78 °F 79 °F 86 °F (2015)
Min Temperature 52 °F 57 °F 48 °F (2009)
Growing Degree Days 15 (Base 50)    
Moisture  
Dew Point 57 °F    
Average Humidity 73    
Maximum Humidity 94    
Minimum Humidity 38    
Precipitation  
Precipitation 0.00 in 0.01 in - ()
Sea Level Pressure  
Sea Level Pressure 30.13 in    
Wind  
Wind Speed 5 mph ()    
Max Wind Speed 12 mph    
Max Gust Speed -    
Visibility 6.1 miles    
Events      
Averages and records for this station are not official NWS values.
T = Trace of Precipitation, MM = Missing Value Source: Averaged Metar Reports

Daily Weather History Graph

Daily Weather History Graph

Search for Another Location

Airport or City:

Trip Planner

Search our weather history database for the weather conditions in past years. The results will help you decide how hot, cold, wet, or windy it might be!

Date:

Astronomy

Jan. 23, 2014 Rise Set
Actual Time 6:17 AM CST 5:44 PM CST
Civil Twilight 5:54 AM CST 6:06 PM CST
Nautical Twilight 5:28 AM CST 6:32 PM CST
Astronomical Twilight 5:02 AM CST 6:58 PM CST
Moon 11:57 PM CST 11:06 AM CST
Length of Visible Light 12h 12m
Length of Day
11h 27m
Waning Gibbous, 55% of the Moon is Illuminated
Jan 23
Waning Gibbous
Jan 23
Last Quarter
Jan 30
New
Feb 6
First Quarter
Feb 14
Full

Hourly Weather History & Observations

Time (CST) Temp. Dew Point Humidity Pressure Visibility Wind Dir Wind Speed Gust Speed Precip Events Conditions
12:00 AM 59 °F 57 °F 91% 30.10 in 4 mi NNE 6.9 mph - -   Mostly Cloudy
12:00 AM 59.0 °F 57.2 °F 94% 30.18 in 4.3 mi NNE 6.9 mph - N/A   Mostly Cloudy
1:00 AM 59.0 °F 57.2 °F 94% 30.18 in 5.0 mi NNE 5.8 mph - N/A   Mostly Cloudy
2:00 AM 59.0 °F 55.4 °F 88% 30.15 in 5.0 mi NNE 5.8 mph - N/A   Mostly Cloudy
3:00 AM 59.0 °F 55.4 °F 88% 30.15 in 5.0 mi North 5.8 mph - N/A   Mostly Cloudy
4:00 AM 57.2 °F 53.6 °F 88% 30.15 in 6.2 mi North 4.6 mph - N/A   Scattered Clouds
5:00 AM 55.4 °F 53.6 °F 94% 30.15 in 6.2 mi NNW 2.3 mph - N/A   Partly Cloudy
6:00 AM 54 °F 52 °F 92% 30.10 in 6 mi 2.3 mph - -   Mist
6:00 AM 53.6 °F 51.8 °F 94% 30.15 in 6.2 mi Variable 2.3 mph - N/A   Partly Cloudy
7:00 AM 53.6 °F 51.8 °F 94% 30.15 in 6.2 mi Calm Calm - N/A   Partly Cloudy
8:00 AM 57.2 °F 55.4 °F 94% 30.18 in 6.2 mi Calm Calm - N/A   Mostly Cloudy
9:00 AM 64 °F 59 °F 79% 30.14 in 6 mi Calm Calm - -   Mostly Cloudy
9:00 AM 64.4 °F 59.0 °F 83% 30.21 in 6.2 mi Calm Calm - N/A   Mostly Cloudy
10:00 AM 75.2 °F 62.6 °F 65% 30.21 in 6.2 mi North 6.9 mph - N/A   Mostly Cloudy
11:00 AM 73.4 °F 62.6 °F 69% 30.18 in 6.2 mi North 6.9 mph - N/A   Mostly Cloudy
12:00 PM 79 °F 60 °F 43% 29.99 in 9 mi NNE 5.8 mph - -   Haze
12:00 PM 78.8 °F 60.8 °F 54% 30.15 in 6.2 mi NNE 5.8 mph - N/A   Partly Cloudy
1:00 PM 78.8 °F 57.2 °F 47% 30.12 in 6.2 mi ENE 11.5 mph - N/A   Partly Cloudy
2:00 PM 77.0 °F 55.4 °F 47% 30.09 in 6.2 mi ENE 11.5 mph - N/A   Partly Cloudy
3:00 PM 77 °F 56 °F 38% 29.88 in 9 mi ENE 11.5 mph - -   Haze
3:00 PM 77.0 °F 57.2 °F 50% 30.09 in 6.2 mi ENE 11.5 mph - N/A   Scattered Clouds
4:00 PM 73.4 °F 55.4 °F 53% 30.09 in 6.2 mi East 6.9 mph - N/A   Scattered Clouds
5:00 PM 71.6 °F 55.4 °F 57% 30.12 in 6.2 mi East 9.2 mph - N/A   Mostly Cloudy
6:00 PM 69 °F 56 °F 54% 29.97 in 6 mi East 4.6 mph - -   Haze
6:00 PM 69.8 °F 55.4 °F 60% 30.12 in 6.2 mi East 4.6 mph - N/A   Scattered Clouds
7:00 PM 68.0 °F 57.2 °F 68% 30.15 in 6.2 mi North 11.5 mph - N/A   Partly Cloudy
8:00 PM 66.2 °F 59.0 °F 78% 30.15 in 6.2 mi North 9.2 mph - N/A   Scattered Clouds
9:00 PM 67 °F 59 °F 68% 30.04 in 6 mi North 6.9 mph - -   Haze
9:00 PM 68.0 °F 59.0 °F 73% 30.18 in 6.2 mi North 6.9 mph - N/A   Mostly Cloudy
10:00 PM 64.4 °F 59.0 °F 83% 30.18 in 6.2 mi North 6.9 mph - N/A   Scattered Clouds
11:00 PM 64.4 °F 59.0 °F 83% 30.18 in 6.2 mi NNE 4.6 mph - N/A   Scattered Clouds